Time,TemperatureF,DewpointF,PressureIn,WindDirection,WindDirectionDegrees,WindSpeedMPH,WindSpeedGustMPH,Humidity,HourlyPrecipIn,Conditions,Clouds,dailyrainin,SolarRadiationWatts/m^2,SoftwareType,DateUTC
2013-03-29 00:02:00,33.0,29.0,-100.00,West,273,9.0,21.0,86,0.00,,,-99.99,0.000000,,2013-03-29 06:02:00,
2013-03-29 00:32:00,34.0,30.0,-100.00,WSW,245,9.0,12.0,85,0.00,,,-99.99,0.000000,,2013-03-29 06:32:00,
2013-03-29 00:42:00,34.0,30.0,-100.00,WSW,245,9.0,12.0,85,0.00,,,-99.99,0.000000,,2013-03-29 06:42:00,
2013-03-29 00:52:00,34.0,30.0,-100.00,WSW,245,9.0,12.0,85,0.00,,,-99.99,0.000000,,2013-03-29 06:52:00,
2013-03-29 01:02:00,34.0,30.0,-100.00,WSW,245,9.0,12.0,85,0.00,,,-99.99,0.000000,,2013-03-29 07:02:00,
2013-03-29 01:32:00,34.0,28.0,-100.00,SW,218,4.0,9.0,79,0.00,,,-99.99,0.000000,,2013-03-29 07:32:00,
2013-03-29 01:42:00,34.0,28.0,-100.00,SW,218,4.0,9.0,79,0.00,,,-99.99,0.000000,,2013-03-29 07:42:00,
2013-03-29 01:52:00,34.0,28.0,-100.00,SW,218,4.0,9.0,79,0.00,,,-99.99,0.000000,,2013-03-29 07:52:00,
2013-03-29 02:02:00,34.0,28.0,-100.00,SW,218,4.0,9.0,79,0.00,,,-99.99,0.000000,,2013-03-29 08:02:00,
2013-03-29 02:32:00,34.0,30.0,-100.00,South,178,6.0,7.0,84,0.00,,,-99.99,0.000000,,2013-03-29 08:32:00,
2013-03-29 02:42:00,34.0,30.0,-100.00,South,178,6.0,7.0,84,0.00,,,-99.99,0.000000,,2013-03-29 08:42:00,
2013-03-29 02:52:00,34.0,30.0,-100.00,South,178,6.0,7.0,84,0.00,,,-99.99,0.000000,,2013-03-29 08:52:00,
2013-03-29 03:02:00,34.0,30.0,-100.00,South,178,6.0,7.0,84,0.00,,,-99.99,0.000000,,2013-03-29 09:02:00,
2013-03-29 03:33:00,33.0,29.0,-100.00,SSE,161,5.0,7.0,85,0.00,,,-99.99,0.000000,,2013-03-29 09:33:00,
2013-03-29 03:43:00,33.0,29.0,-100.00,SSE,161,5.0,7.0,85,0.00,,,-99.99,0.000000,,2013-03-29 09:43:00,
2013-03-29 03:52:00,33.0,29.0,-100.00,SSE,161,5.0,7.0,85,0.00,,,-99.99,0.000000,,2013-03-29 09:52:00,
2013-03-29 04:02:00,33.0,29.0,-100.00,SSE,161,5.0,7.0,85,0.00,,,-99.99,0.000000,,2013-03-29 10:02:00,
2013-03-29 04:33:00,33.0,30.0,-100.00,SSE,157,7.0,8.0,88,0.00,,,-99.99,0.000000,,2013-03-29 10:33:00,
2013-03-29 04:42:00,33.0,30.0,-100.00,SSE,157,7.0,8.0,88,0.00,,,-99.99,0.000000,,2013-03-29 10:42:00,
2013-03-29 04:53:00,33.0,30.0,-100.00,SSE,157,7.0,8.0,88,0.00,,,-99.99,0.000000,,2013-03-29 10:53:00,
2013-03-29 05:02:00,33.0,30.0,-100.00,SSE,157,7.0,8.0,88,0.00,,,-99.99,0.000000,,2013-03-29 11:02:00,
2013-03-29 05:33:00,34.0,30.0,-100.00,SW,220,8.0,12.0,84,0.00,,,-99.99,0.000000,,2013-03-29 11:33:00,
2013-03-29 05:43:00,34.0,30.0,-100.00,SW,220,8.0,12.0,84,0.00,,,-99.99,0.000000,,2013-03-29 11:43:00,
2013-03-29 05:52:00,34.0,30.0,-100.00,SW,220,8.0,12.0,84,0.00,,,-99.99,0.000000,,2013-03-29 11:52:00,
2013-03-29 06:02:00,34.0,30.0,-100.00,SW,220,8.0,12.0,84,0.00,,,-99.99,0.000000,,2013-03-29 12:02:00,
2013-03-29 06:32:00,32.0,28.0,-100.00,West,269,3.0,10.0,85,0.00,,,-99.99,0.000000,,2013-03-29 12:32:00,
2013-03-29 06:43:00,32.0,28.0,-100.00,West,269,3.0,10.0,85,0.00,,,-99.99,0.000000,,2013-03-29 12:43:00,
2013-03-29 06:52:00,32.0,28.0,-100.00,West,269,3.0,10.0,85,0.00,,,-99.99,0.000000,,2013-03-29 12:52:00,
2013-03-29 07:02:00,32.0,28.0,-100.00,West,269,3.0,10.0,85,0.00,,,-99.99,0.000000,,2013-03-29 13:02:00,
2013-03-29 07:33:00,31.0,27.0,-100.00,WNW,289,7.0,11.0,86,0.00,,,-99.99,0.000000,,2013-03-29 13:33:00,
2013-03-29 07:43:00,31.0,27.0,-100.00,WNW,289,7.0,11.0,86,0.00,,,-99.99,0.000000,,2013-03-29 13:43:00,
2013-03-29 07:52:00,31.0,27.0,-100.00,WNW,289,7.0,11.0,86,0.00,,,-99.99,0.000000,,2013-03-29 13:52:00,
2013-03-29 08:02:00,31.0,27.0,-100.00,WNW,289,7.0,11.0,86,0.00,,,-99.99,0.000000,,2013-03-29 14:02:00,
2013-03-29 08:33:00,31.0,29.0,-100.00,West,271,7.0,10.0,93,0.00,,,-99.99,7.000000,,2013-03-29 14:33:00,
2013-03-29 08:42:00,31.0,29.0,-100.00,West,271,7.0,10.0,93,0.00,,,-99.99,7.000000,,2013-03-29 14:42:00,
2013-03-29 08:52:00,31.0,29.0,-100.00,West,271,7.0,10.0,93,0.00,,,-99.99,7.000000,,2013-03-29 14:52:00,
2013-03-29 09:02:00,31.0,29.0,-100.00,West,271,7.0,10.0,93,0.00,,,-99.99,7.000000,,2013-03-29 15:02:00,
2013-03-29 09:33:00,31.0,29.0,-100.00,West,272,10.0,15.0,94,0.00,,,-99.99,34.000000,,2013-03-29 15:33:00,
2013-03-29 09:43:00,31.0,29.0,-100.00,West,272,10.0,15.0,94,0.00,,,-99.99,34.000000,,2013-03-29 15:43:00,
2013-03-29 09:53:00,31.0,29.0,-100.00,West,272,10.0,15.0,94,0.00,,,-99.99,34.000000,,2013-03-29 15:53:00,
2013-03-29 10:03:00,31.0,29.0,-100.00,West,272,10.0,15.0,94,0.00,,,-99.99,34.000000,,2013-03-29 16:03:00,
2013-03-29 10:33:00,33.0,31.0,-100.00,WSW,241,8.0,17.0,93,0.00,,,-99.99,124.000000,,2013-03-29 16:33:00,
2013-03-29 10:43:00,33.0,31.0,-100.00,WSW,241,8.0,17.0,93,0.00,,,-99.99,124.000000,,2013-03-29 16:43:00,
2013-03-29 10:53:00,33.0,31.0,-100.00,WSW,241,8.0,17.0,93,0.00,,,-99.99,124.000000,,2013-03-29 16:53:00,
2013-03-29 11:02:00,33.0,31.0,-100.00,WSW,241,8.0,17.0,93,0.00,,,-99.99,124.000000,,2013-03-29 17:02:00,
2013-03-29 11:33:00,35.0,32.0,-100.00,WSW,253,9.0,15.0,87,0.03,,,-99.99,236.000000,,2013-03-29 17:33:00,
2013-03-29 11:43:00,35.0,32.0,-100.00,WSW,253,9.0,15.0,87,0.03,,,-99.99,236.000000,,2013-03-29 17:43:00,
2013-03-29 11:52:00,35.0,32.0,-100.00,WSW,253,9.0,15.0,87,0.03,,,-99.99,236.000000,,2013-03-29 17:52:00,
2013-03-29 12:02:00,35.0,32.0,-100.00,WSW,253,9.0,15.0,87,0.03,,,-99.99,236.000000,,2013-03-29 18:02:00,
2013-03-29 12:33:00,39.0,31.0,-100.00,West,261,7.0,13.0,74,0.00,,,0.03,520.000000,,2013-03-29 18:33:00,
2013-03-29 12:43:00,39.0,31.0,-100.00,West,261,7.0,13.0,74,0.00,,,0.03,520.000000,,2013-03-29 18:43:00,
2013-03-29 12:52:00,39.0,31.0,-100.00,West,261,7.0,13.0,74,0.00,,,0.03,520.000000,,2013-03-29 18:52:00,
2013-03-29 13:02:00,39.0,31.0,-100.00,West,261,7.0,13.0,74,0.00,,,0.03,520.000000,,2013-03-29 19:02:00,
2013-03-29 13:33:00,39.0,31.0,-100.00,WSW,238,8.0,14.0,73,0.00,,,0.03,550.000000,,2013-03-29 19:33:00,
2013-03-29 13:43:00,39.0,31.0,-100.00,WSW,238,8.0,14.0,73,0.00,,,0.03,550.000000,,2013-03-29 19:43:00,
2013-03-29 13:52:00,39.0,31.0,-100.00,WSW,238,8.0,14.0,73,0.00,,,0.03,550.000000,,2013-03-29 19:52:00,
2013-03-29 14:02:00,39.0,31.0,-100.00,WSW,238,8.0,14.0,73,0.00,,,0.03,550.000000,,2013-03-29 20:02:00,
2013-03-29 14:33:00,39.0,26.0,-100.00,West,264,9.0,15.0,60,0.00,,,0.03,512.000000,,2013-03-29 20:33:00,
2013-03-29 14:42:00,39.0,26.0,-100.00,West,264,9.0,15.0,60,0.00,,,0.03,512.000000,,2013-03-29 20:42:00,
2013-03-29 14:52:00,39.0,26.0,-100.00,West,264,9.0,15.0,60,0.00,,,0.03,512.000000,,2013-03-29 20:52:00,
2013-03-29 15:02:00,39.0,26.0,-100.00,West,264,9.0,15.0,60,0.00,,,0.03,512.000000,,2013-03-29 21:02:00,
2013-03-29 15:33:00,37.0,28.0,-100.00,WNW,287,18.0,24.0,71,0.00,,,0.03,727.000000,,2013-03-29 21:33:00,
2013-03-29 15:43:00,37.0,28.0,-100.00,WNW,287,18.0,24.0,71,0.00,,,0.03,727.000000,,2013-03-29 21:43:00,
2013-03-29 15:53:00,37.0,28.0,-100.00,WNW,287,18.0,24.0,71,0.00,,,0.03,727.000000,,2013-03-29 21:53:00,
2013-03-29 16:03:00,37.0,28.0,-100.00,WNW,287,18.0,24.0,71,0.00,,,0.03,727.000000,,2013-03-29 22:03:00,
2013-03-29 16:34:00,33.0,29.0,-100.00,WNW,297,17.0,24.0,84,0.00,,,0.03,476.000000,,2013-03-29 22:34:00,
2013-03-29 16:43:00,33.0,29.0,-100.00,WNW,297,17.0,24.0,84,0.00,,,0.03,476.000000,,2013-03-29 22:43:00,
2013-03-29 16:53:00,33.0,29.0,-100.00,WNW,297,17.0,24.0,84,0.00,,,0.03,476.000000,,2013-03-29 22:53:00,
2013-03-29 17:02:00,33.0,29.0,-100.00,WNW,297,17.0,24.0,84,0.00,,,0.03,476.000000,,2013-03-29 23:02:00,
2013-03-29 17:32:00,36.0,28.0,-100.00,West,270,10.0,17.0,72,0.00,,,0.03,310.000000,,2013-03-29 23:32:00,
2013-03-29 17:42:00,36.0,28.0,-100.00,West,270,10.0,17.0,72,0.00,,,0.03,310.000000,,2013-03-29 23:42:00,
2013-03-29 17:52:00,36.0,28.0,-100.00,West,270,10.0,17.0,72,0.00,,,0.03,310.000000,,2013-03-29 23:52:00,
2013-03-29 18:02:00,36.0,28.0,-100.00,West,270,10.0,17.0,72,0.00,,,0.03,310.000000,,2013-03-30 00:02:00,
2013-03-29 18:33:00,36.0,27.0,-100.00,West,275,11.0,18.0,70,0.00,,,0.03,199.000000,,2013-03-30 00:33:00,
2013-03-29 18:43:00,36.0,27.0,-100.00,West,275,11.0,18.0,70,0.00,,,0.03,199.000000,,2013-03-30 00:43:00,
2013-03-29 18:53:00,36.0,27.0,-100.00,West,275,11.0,18.0,70,0.00,,,0.03,199.000000,,2013-03-30 00:53:00,
2013-03-29 19:02:00,36.0,27.0,-100.00,West,275,11.0,18.0,70,0.00,,,0.03,199.000000,,2013-03-30 01:02:00,
2013-03-29 19:33:00,34.0,28.0,-100.00,West,267,12.0,19.0,80,0.00,,,0.03,92.000000,,2013-03-30 01:33:00,
2013-03-29 19:43:00,34.0,28.0,-100.00,West,267,12.0,19.0,80,0.00,,,0.03,92.000000,,2013-03-30 01:43:00,
2013-03-29 19:52:00,34.0,28.0,-100.00,West,267,12.0,19.0,80,0.00,,,0.03,92.000000,,2013-03-30 01:52:00,
2013-03-29 20:02:00,34.0,28.0,-100.00,West,267,12.0,19.0,80,0.00,,,0.03,92.000000,,2013-03-30 02:02:00,
2013-03-29 20:33:00,32.0,28.0,-100.00,West,281,16.0,23.0,84,0.00,,,0.03,21.000000,,2013-03-30 02:33:00,
2013-03-29 20:43:00,32.0,28.0,-100.00,West,281,16.0,23.0,84,0.00,,,0.03,21.000000,,2013-03-30 02:43:00,
2013-03-29 20:53:00,32.0,28.0,-100.00,West,281,16.0,23.0,84,0.00,,,0.03,21.000000,,2013-03-30 02:53:00,
2013-03-29 21:02:00,32.0,28.0,-100.00,West,281,16.0,23.0,84,0.00,,,0.03,21.000000,,2013-03-30 03:02:00,
2013-03-29 21:33:00,31.0,29.0,-100.00,WNW,284,15.0,22.0,93,0.00,,,0.03,0.000000,,2013-03-30 03:33:00,
2013-03-29 21:43:00,31.0,29.0,-100.00,WNW,284,15.0,22.0,93,0.00,,,0.03,0.000000,,2013-03-30 03:43:00,
2013-03-29 21:53:00,31.0,29.0,-100.00,WNW,284,15.0,22.0,93,0.00,,,0.03,0.000000,,2013-03-30 03:53:00,
2013-03-29 22:02:00,31.0,29.0,-100.00,WNW,284,15.0,22.0,93,0.00,,,0.03,0.000000,,2013-03-30 04:02:00,
2013-03-29 22:33:00,31.0,28.0,-100.00,West,279,15.0,20.0,88,0.00,,,0.03,0.000000,,2013-03-30 04:33:00,
2013-03-29 22:43:00,31.0,28.0,-100.00,West,279,15.0,20.0,88,0.00,,,0.03,0.000000,,2013-03-30 04:43:00,
2013-03-29 22:53:00,31.0,28.0,-100.00,West,279,15.0,20.0,88,0.00,,,0.03,0.000000,,2013-03-30 04:53:00,
2013-03-29 23:02:00,31.0,28.0,-100.00,West,279,15.0,20.0,88,0.00,,,0.03,0.000000,,2013-03-30 05:02:00,
2013-03-29 23:32:00,31.0,28.0,-100.00,West,273,10.0,19.0,88,0.00,,,-99.99,0.000000,,2013-03-30 05:32:00,
2013-03-29 23:42:00,31.0,28.0,-100.00,West,273,10.0,19.0,88,0.00,,,-99.99,0.000000,,2013-03-30 05:42:00,
2013-03-29 23:52:00,31.0,28.0,-100.00,West,273,10.0,19.0,88,0.00,,,-99.99,0.000000,,2013-03-30 05:52:00,